{"data":{"norad_id":69043,"epoch":"2026-09-19T00:48:18.964512Z","epoch_age_seconds":149963,"freshness":"FRESH","line1":"1 69043U 26101U   26262.03355283  .00011952  00000+0  37185-3 0  9993","line2":"2 69043  97.2841 115.5318 0001792  89.3747 270.7701 15.33452395 20956","mean_motion":15.33452395,"eccentricity":0.0001792,"inclination_deg":97.2841,"raan_deg":115.5318,"arg_perigee_deg":89.3747,"mean_anomaly_deg":270.7701,"bstar":0.00037185,"rev_number":2095,"period_min":93.905751798705,"perigee_km":464.29478870491,"apogee_km":466.74755579385,"semimajor_km":6843.6581722494,"source":"CELESTRAK","updated_at":"2026-09-20T09:00:44.061712Z"}}